TimePDT,TemperatureF,Dew PointF,Humidity,Sea Level PressureIn,VisibilityMPH,Wind Direction,Wind SpeedMPH,Gust SpeedMPH,PrecipitationIn,Events,Conditions,WindDirDegrees,DateUTC
12:53 AM,50.0,43.0,77,30.07,10.0,Calm,Calm,-,N/A,,Clear,0,2013-05-10 07:53:00
1:53 AM,48.9,43.0,80,30.08,10.0,Calm,Calm,-,N/A,,Clear,0,2013-05-10 08:53:00
2:53 AM,48.0,42.1,80,30.09,10.0,ENE,4.6,-,N/A,,Clear,60,2013-05-10 09:53:00
3:53 AM,46.0,41.0,83,30.10,10.0,Calm,Calm,-,N/A,,Clear,0,2013-05-10 10:53:00
6:53 AM,55.0,46.0,72,30.14,10.0,NNW,4.6,-,N/A,,Clear,340,2013-05-10 13:53:00
7:53 AM,64.0,45.0,50,30.15,10.0,NE,8.1,-,N/A,,Clear,40,2013-05-10 14:53:00
8:53 AM,68.0,42.1,39,30.17,10.0,NE,5.8,-,N/A,,Clear,40,2013-05-10 15:53:00
9:53 AM,73.0,44.1,35,30.17,10.0,Variable,3.5,-,N/A,,Clear,0,2013-05-10 16:53:00
10:53 AM,73.9,45.0,35,30.17,10.0,South,4.6,-,N/A,,Clear,170,2013-05-10 17:53:00
11:53 AM,75.9,44.1,32,30.17,10.0,South,4.6,-,N/A,,Clear,170,2013-05-10 18:53:00
12:53 PM,79.0,46.0,31,30.15,10.0,South,4.6,-,N/A,,Clear,170,2013-05-10 19:53:00
1:53 PM,81.0,46.0,29,30.14,10.0,Calm,Calm,-,N/A,,Clear,0,2013-05-10 20:53:00
2:53 PM,82.9,43.0,24,30.12,10.0,Calm,Calm,-,N/A,,Clear,0,2013-05-10 21:53:00
3:53 PM,84.0,42.1,23,30.10,10.0,West,8.1,-,N/A,,Clear,260,2013-05-10 22:53:00
4:53 PM,84.0,43.0,24,30.09,10.0,SSE,8.1,-,N/A,,Partly Cloudy,160,2013-05-10 23:53:00
5:53 PM,84.0,41.0,22,30.07,10.0,North,-9999.0,-,N/A,,Clear,0,2013-05-11 00:53:00
6:53 PM,81.0,39.0,22,30.06,10.0,North,-9999.0,-,N/A,,Clear,0,2013-05-11 01:53:00
7:53 PM,69.1,51.1,53,30.07,10.0,Calm,Calm,-,N/A,,Clear,0,2013-05-11 02:53:00
8:53 PM,62.1,48.0,60,30.08,10.0,Calm,Calm,-,N/A,,Clear,0,2013-05-11 03:53:00
9:53 PM,55.9,45.0,67,30.09,10.0,Calm,Calm,-,N/A,,Clear,0,2013-05-11 04:53:00
10:53 PM,54.0,44.1,69,30.09,10.0,Calm,Calm,-,N/A,,Clear,0,2013-05-11 05:53:00
11:53 PM,52.0,45.0,77,30.10,10.0,NE,3.5,-,N/A,,Clear,40,2013-05-11 06:53:00